EW2649 Weather Reports


time (UTC)temp
F
wind
direction
speed
knots
gust
knots
rain 1hr
in
rain 24hr
in
rain mn
in
humidity
%
barometer
mb
20260503210133 61 222 11.3 16.5 0.00 0.00 0.00 73 1008.7
20260503204554 59 246 9.6 16.5 0.00 0.00 0.00 74 1008.9
20260503203035 59 260 7.0 10.4 0.00 0.00 0.00 75 1009.1
20260503201605 59 218 7.0 12.2 0.00 0.00 0.00 75 1009.1
20260503200023 58 243 2.6 8.7 0.00 0.00 0.00 76 1009.3
20260503194617 59 165 5.2 10.4 0.00 0.00 0.00 74 1009.2
20260503193040 59 225 1.7 7.8 0.00 0.00 0.00 74 1009.3
20260503191631 59 178 6.1 10.4 0.00 0.00 0.00 74 1009.3
20260503190058 59 196 6.1 10.4 0.00 0.00 0.00 72 1009.3
20260503184507 59 198 3.5 8.7 0.00 0.00 0.00 72 1009.2
20260503183104 59 131 2.6 10.4 0.00 0.00 0.00 76 1009.2
20260503181521 59 306 4.3 9.6 0.00 0.00 0.00 74 1009.2
20260503180118 60 194 4.3 7.8 0.00 0.00 0.00 72 1009.1
20260503174535 60 290 3.5 7.8 0.00 0.00 0.00 76 1009.1
20260503173132 57 196 0.9 7.0 0.00 0.00 0.00 81 1009.1
20260503171545 56 196 3.5 8.7 0.00 0.00 0.00 80 1009.2
20260503140114 52 146 0.9 2.6 0.00 0.00 0.00 90 1008.2
20260503100120 53 101 0.0 1.7 0.00 0.00 0.00 85 1007.5
20260503081619 53 194 0.9 2.6 0.00 0.00 0.00 87 1008.4
20260503071501 52 173 0.0 0.9 0.00 0.00 0.00 88 1008.5
20260503060119 53 88 0.0 2.6 0.00 0.00 0.00 84 1008.6
20260503054551 53 89 1.7 2.6 0.00 0.00 0.00 84 1008.7
20260503053128 53 128 0.0 0.0 0.00 0.00 0.00 84 1008.8
20260503051547 53 127 0.9 2.6 0.00 0.00 0.00 83 1008.8
20260503050003 54 315 2.6 6.1 0.00 0.00 0.00 82 1008.7
20260503044558 54 262 1.7 5.2 0.00 0.00 0.00 82 1008.7
20260503043025 54 178 0.0 1.7 0.00 0.00 0.00 83 1008.6
20260503041618 54 207 0.0 1.7 0.00 0.00 0.00 82 1008.5
20260503040038 54 207 0.9 1.7 0.00 0.00 0.00 82 1008.2
20260503034627 55 207 0.0 2.6 0.00 0.00 0.00 81 1008.1
20260503033046 55 250 0.0 0.9 0.00 0.00 0.00 81 1008.0
20260503031509 55 249 0.9 4.3 0.00 0.00 0.00 81 1007.8
20260503030058 55 242 1.7 5.2 0.00 0.00 0.00 80 1007.6
20260503024518 55 256 3.5 6.1 0.00 0.00 0.00 80 1007.4
20260503023111 55 231 1.7 6.1 0.00 0.00 0.00 80 1007.3
20260503021534 56 245 4.3 8.7 0.00 0.00 0.00 80 1007.2
20260503020131 56 263 5.2 9.6 0.00 0.00 0.00 79 1007.2
20260503014553 57 278 2.6 7.0 0.00 0.00 0.00 78 1007.3
20260503013009 58 215 3.5 7.8 0.00 0.00 0.00 78 1007.2
20260503011609 58 238 7.0 13.0 0.00 0.00 0.00 77 1007.2
20260503010029 59 242 7.8 10.4 0.00 0.00 0.00 76 1007.2
20260503004619 60 249 5.2 12.2 0.00 0.00 0.00 76 1007.1
20260503003042 60 237 7.0 12.2 0.00 0.00 0.00 76 1007.2
20260503001502 59 276 6.1 13.0 0.00 0.00 0.00 76 1007.3
20260502234524 61 263 7.0 11.3 0.00 0.00 0.00 75 1007.3
20260502233112 61 273 6.1 14.8 0.00 0.00 0.00 76 1007.5
20260502231526 61 244 9.6 14.8 0.00 0.00 0.00 75 1007.5
20260502230119 62 210 7.8 13.9 0.00 0.00 0.00 74 1007.8
20260502224536 62 275 7.0 15.6 0.00 0.00 0.00 74 1007.9
20260502223132 62 227 7.0 11.3 0.00 0.00 0.00 74 1008.2
20260502221548 61 257 7.0 13.0 0.00 0.00 0.00 76 1008.4
20260502220012 61 236 8.7 16.5 0.00 0.00 0.00 75 1008.7
20260502214558 62 245 8.7 16.5 0.00 0.00 0.00 76 1008.8
20260502213016 61 239 7.0 13.9 0.00 0.00 0.00 76 1008.9
20260502211610 61 204 7.8 13.9 0.00 0.00 0.00 76 1009.0